Regional Weather Roundup
Issued by NWS

Home | Current Version | Previous Version | Text Only | Print | Product List | Glossary On
Versions: 1 2 3 4 5 6 7 8 9 10 11 12 13 14 15 16 17 18 19 20 21 22 23 24 25 26 27 28 29 30 31 32 33 34 35 36 37 38 39 40 41 42 43 44 45 46 47 48 49 50
000
ASUS43 KTOP 241659
RWRKS

WEATHER ROUNDUP FOR KANSAS
NATIONAL WEATHER SERVICE GOODLAND KS
1200 PM CDT FRI MAR 24 2017

NOTE:  "FAIR" INDICATES FEW OR NO CLOUDS BELOW 12,000 FEET WITH NO
SIGNIFICANT WEATHER AND/OR OBSTRUCTIONS TO VISIBILITY.

KSZ001>006-013>018-027>032-041>047-241800-
NORTHWEST KANSAS

CITY           SKY/WX    TMP DP  RH WIND       PRES   REMARKS
GOODLAND       LGT RAIN  40  40 100 N24G32    29.89R FOG     WCI  29
HAYS             N/A     65  33  30 E7        29.77R
HILL CITY      CLOUDY    48  45  89 NE22G36   29.84R FOG
RUSSELL        SUNNY     69  33  26 S17G29    29.74R
$$

KSZ061>065-074>080-084>089-241800-
SOUTHWEST KANSAS

CITY           SKY/WX    TMP DP  RH WIND       PRES   REMARKS
DODGE CITY     SUNNY     62  34  35 SE13G23   29.72R
ELKHART          N/A     46  30  53 N16         N/A
GARDEN CITY    SUNNY     59  34  39 E13G23    29.70R
GREAT BEND     SUNNY     67  33  28 S16       29.75R
LIBERAL        CLOUDY    57  30  35 E12       29.66R
$$

KSZ066>073-081>083-090>101-241800-
SOUTHEAST KANSAS

CITY           SKY/WX    TMP DP  RH WIND       PRES   REMARKS
CHANUTE        CLOUDY    67  53  61 S25G33    29.85R
COFFEYVILLE    PTSUNNY   68  56  65 S20G36    29.85S
HUTCHINSON     SUNNY     72  32  23 S16G25    29.76S
MEDICINE LODGE   N/A     68  29  23 S12G24    29.72R
NEWTON         MOSUNNY   69  50  50 S18G26    29.78S
PARSONS        CLOUDY    67  55  65 S18G32    29.85S
WICHITA INTL   MOSUNNY   72  44  36 S22       29.76F
WICHITA JABRA  PTSUNNY   68  51  54 S14G23    29.77S
WINFIELD       CLOUDY    69  53  56 S16       29.78F
$$

KSZ007>012-019>026-033>040-048>060-102>105-241800-
NORTHEAST KANSAS

CITY           SKY/WX    TMP DP  RH WIND       PRES   REMARKS
CONCORDIA      CLOUDY    65  55  70 N18       29.80R
EMPORIA        CLOUDY    71  54  54 S18G31    29.80R
LAWRENCE       LGT RAIN  65  55  70 SE10      29.84S
MANHATTAN      CLOUDY    71  51  49 SW9       29.79R
OLATHE IND     LGT RAIN  66  55  67 S15G22    29.86S
OLATHE EXE     CLOUDY    62  56  80 S10       29.86R THUNDER
SALINA         PTSUNNY   75  44  33 S18       29.77R
TOPEKA BILLARD LGT RAIN  68  56  65 S10       29.83R
TOPEKA FORBES  CLOUDY    68  53  58 S20G26    29.83R
$$




USA.gov is the U.S. government's official web portal to all federal, state and local government web resources and services.